TimeCST,TemperatureF,Dew PointF,Humidity,Sea Level PressureIn,VisibilityMPH,Wind Direction,Wind SpeedMPH,Gust SpeedMPH,PrecipitationIn,Events,Conditions,WindDirDegrees,DateUTC
12:13 AM,5.0,3.2,92,30.35,10.0,South,3.5,-,N/A,,Scattered Clouds,190,2012-11-24 06:13:00
12:34 AM,5.0,3.2,92,30.34,10.0,Calm,Calm,-,N/A,,Scattered Clouds,0,2012-11-24 06:34:00
12:54 AM,6.8,3.2,85,30.33,10.0,Calm,Calm,-,N/A,,Mostly Cloudy,0,2012-11-24 06:54:00
1:13 AM,6.8,3.2,85,30.32,10.0,South,3.5,-,N/A,,Overcast,180,2012-11-24 07:13:00
1:34 AM,6.8,3.2,85,30.31,7.0,SSE,3.5,-,N/A,Snow,Light Snow,150,2012-11-24 07:34:00
2:14 AM,6.8,3.2,85,30.29,7.0,SE,5.8,-,N/A,Snow,Light Snow,140,2012-11-24 08:14:00
2:31 AM,6.8,3.2,85,30.29,10.0,South,4.6,-,N/A,Snow,Light Snow,170,2012-11-24 08:31:00
2:54 AM,6.8,3.2,85,30.28,10.0,SSE,3.5,-,N/A,,Overcast,160,2012-11-24 08:54:00
3:14 AM,8.6,6.8,92,30.27,10.0,South,5.8,-,N/A,Snow,Light Snow,180,2012-11-24 09:14:00
3:54 AM,10.4,6.8,85,30.23,10.0,SSE,6.9,-,N/A,Snow,Light Snow,160,2012-11-24 09:54:00
4:14 AM,10.4,8.6,92,30.21,10.0,SSE,10.4,-,N/A,,Scattered Clouds,160,2012-11-24 10:14:00
4:34 AM,10.4,8.6,92,30.19,10.0,SSE,10.4,-,N/A,,Clear,150,2012-11-24 10:34:00
4:54 AM,10.4,8.6,92,30.19,10.0,SSE,9.2,-,N/A,,Scattered Clouds,160,2012-11-24 10:54:00
5:14 AM,10.4,8.6,92,30.17,10.0,SSE,11.5,-,N/A,,Mostly Cloudy,160,2012-11-24 11:14:00
5:33 AM,10.4,8.6,92,30.16,10.0,SSE,13.8,-,N/A,,Mostly Cloudy,160,2012-11-24 11:33:00
5:54 AM,10.4,8.6,92,30.15,10.0,SSE,13.8,-,N/A,,Scattered Clouds,160,2012-11-24 11:54:00
6:14 AM,10.4,8.6,92,30.14,10.0,SSE,13.8,-,N/A,,Scattered Clouds,160,2012-11-24 12:14:00
6:33 AM,10.4,8.6,92,30.14,10.0,SSE,15.0,-,N/A,,Mostly Cloudy,160,2012-11-24 12:33:00
6:54 AM,10.4,8.6,92,30.12,10.0,South,15.0,-,N/A,,Overcast,170,2012-11-24 12:54:00
7:13 AM,10.4,8.6,92,30.10,10.0,SSE,16.1,-,N/A,,Overcast,160,2012-11-24 13:13:00
7:34 AM,12.2,8.6,85,30.08,10.0,SSE,19.6,-,N/A,,Overcast,160,2012-11-24 13:34:00
7:54 AM,10.4,8.6,92,30.06,10.0,SSE,19.6,-,N/A,,Overcast,160,2012-11-24 13:54:00
8:13 AM,12.2,8.6,85,30.06,10.0,SSE,17.3,-,N/A,,Overcast,160,2012-11-24 14:13:00
8:34 AM,12.2,10.4,92,30.04,10.0,SSE,18.4,-,N/A,Snow,Light Snow,160,2012-11-24 14:34:00
8:54 AM,12.2,10.4,92,30.01,10.0,SSE,20.7,-,N/A,,Overcast,160,2012-11-24 14:54:00
9:14 AM,12.2,10.4,92,30.00,10.0,SSE,23.0,-,N/A,,Overcast,160,2012-11-24 15:14:00
9:34 AM,12.2,10.4,92,30.01,10.0,SSE,19.6,25.3,N/A,,Overcast,160,2012-11-24 15:34:00
9:53 AM,12.2,10.4,92,30.01,10.0,SSE,18.4,-,N/A,Snow,Light Snow,160,2012-11-24 15:53:00
10:14 AM,12.2,10.4,92,30.00,10.0,South,18.4,-,N/A,,Overcast,170,2012-11-24 16:14:00
10:34 AM,14.0,10.4,86,29.96,7.0,SSE,21.9,-,N/A,Snow,Light Snow,160,2012-11-24 16:34:00
10:54 AM,14.0,10.4,86,29.96,10.0,South,19.6,-,N/A,Snow,Light Snow,170,2012-11-24 16:54:00
11:14 AM,15.8,10.4,79,29.94,10.0,South,21.9,-,N/A,,Mostly Cloudy,170,2012-11-24 17:14:00
11:34 AM,15.8,12.2,86,29.92,10.0,SSE,19.6,25.3,N/A,,Overcast,160,2012-11-24 17:34:00
11:54 AM,15.8,12.2,86,29.90,10.0,South,20.7,-,N/A,,Mostly Cloudy,170,2012-11-24 17:54:00
12:14 PM,15.8,12.2,86,29.88,7.0,South,20.7,-,N/A,,Overcast,170,2012-11-24 18:14:00
12:34 PM,15.8,14.0,93,29.86,0.8,SSE,23.0,-,N/A,Snow,Light Snow,160,2012-11-24 18:34:00
12:54 PM,17.6,15.8,93,29.83,1.0,SSE,19.6,-,N/A,Snow,Light Snow,160,2012-11-24 18:54:00
1:14 PM,17.6,15.8,93,29.80,2.5,SSE,21.9,31.1,N/A,Snow,Light Snow,160,2012-11-24 19:14:00
1:34 PM,17.6,15.8,93,29.81,10.0,South,21.9,26.5,N/A,,Overcast,170,2012-11-24 19:34:00
1:54 PM,17.6,15.8,93,29.80,0.8,South,17.3,24.2,N/A,Snow,Light Snow,170,2012-11-24 19:54:00
2:14 PM,19.4,17.6,93,29.79,0.8,South,19.6,-,N/A,Snow,Light Snow,180,2012-11-24 20:14:00
2:34 PM,19.4,17.6,93,29.79,2.5,South,17.3,-,N/A,Snow,Light Snow,180,2012-11-24 20:34:00
2:54 PM,19.4,17.6,93,29.79,1.2,South,19.6,-,N/A,Snow,Light Snow,180,2012-11-24 20:54:00
3:14 PM,19.4,17.6,93,29.78,7.0,South,19.6,-,N/A,Snow,Light Snow,190,2012-11-24 21:14:00
3:34 PM,19.4,17.6,93,29.77,7.0,South,17.3,-,N/A,,Overcast,180,2012-11-24 21:34:00
3:54 PM,19.4,17.6,93,29.77,10.0,South,17.3,21.9,N/A,,Overcast,180,2012-11-24 21:54:00
4:14 PM,19.4,17.6,93,29.77,10.0,South,15.0,-,N/A,,Overcast,190,2012-11-24 22:14:00
4:34 PM,21.2,19.4,93,29.76,10.0,South,16.1,-,N/A,,Overcast,190,2012-11-24 22:34:00
4:54 PM,21.2,17.6,86,29.76,10.0,South,12.7,-,N/A,,Overcast,190,2012-11-24 22:54:00
5:14 PM,21.2,19.4,93,29.76,10.0,South,13.8,-,N/A,,Overcast,190,2012-11-24 23:14:00
5:34 PM,21.2,19.4,93,29.76,10.0,South,11.5,-,N/A,,Overcast,190,2012-11-24 23:34:00
5:54 PM,21.2,19.4,93,29.77,10.0,SSW,11.5,-,N/A,,Overcast,200,2012-11-24 23:54:00
6:14 PM,21.2,19.4,93,29.77,10.0,WSW,3.5,-,N/A,,Overcast,240,2012-11-25 00:14:00
6:33 PM,23.0,19.4,86,29.77,10.0,SW,6.9,-,N/A,,Overcast,220,2012-11-25 00:33:00
6:54 PM,23.0,19.4,86,29.78,10.0,SW,6.9,-,N/A,,Overcast,230,2012-11-25 00:54:00
7:14 PM,23.0,21.2,93,29.78,10.0,SW,5.8,-,N/A,,Overcast,230,2012-11-25 01:14:00
7:34 PM,24.8,21.2,86,29.79,10.0,West,6.9,-,N/A,,Overcast,270,2012-11-25 01:34:00
8:14 PM,24.8,21.2,86,29.80,10.0,NW,16.1,19.6,N/A,,Overcast,320,2012-11-25 02:14:00
8:34 PM,24.8,21.2,86,29.80,10.0,NNW,15.0,21.9,N/A,,Overcast,330,2012-11-25 02:34:00
8:54 PM,24.8,21.2,86,29.81,10.0,NNW,16.1,-,N/A,,Overcast,330,2012-11-25 02:54:00
9:14 PM,24.8,21.2,86,29.83,10.0,NNW,13.8,20.7,N/A,,Overcast,330,2012-11-25 03:14:00
9:34 PM,24.8,19.4,80,29.83,10.0,NNW,15.0,21.9,N/A,,Overcast,340,2012-11-25 03:34:00
9:54 PM,24.8,19.4,80,29.84,10.0,NNW,15.0,-,N/A,,Overcast,340,2012-11-25 03:54:00
10:14 PM,24.8,19.4,80,29.85,10.0,NNW,18.4,23.0,N/A,,Overcast,330,2012-11-25 04:14:00
10:34 PM,24.8,19.4,80,29.85,10.0,NNW,20.7,25.3,N/A,,Overcast,340,2012-11-25 04:34:00
10:54 PM,23.0,17.6,80,29.85,7.0,NNW,20.7,32.2,N/A,,Overcast,340,2012-11-25 04:54:00
11:14 PM,21.2,17.6,86,29.87,10.0,NNW,17.3,-,N/A,,Mostly Cloudy,340,2012-11-25 05:14:00
11:34 PM,21.2,17.6,86,29.87,10.0,North,13.8,20.7,N/A,,Overcast,350,2012-11-25 05:34:00
11:54 PM,21.2,17.6,86,29.87,10.0,NNW,11.5,16.1,N/A,,Overcast,340,2012-11-25 05:54:00